APSTAR-6C

Last updated on Thu Aug 20 2026 00:02:59 GMT+0000 (Coordinated Universal Time)

1 43450U 18041A 26231.18794966 -.00000321 00000+0 00000+0 0 9999 2 43450 0.0632 290.3318 0001061 280.3179 318.5631 1.00272978 30447
UTC large
Height (km)
Speed (km/s)
/
Latitude / Longitude
Inclination (degrees)
Orbital Period (minutes)
Azimuth
Elevation
Range (km)
Doppler Factor

Next 0 passes for location: London (51.5072 / 0.1276)

No passes found over London.